OPS 4682 DEB, 59149

Orbit data source: Space-Track

OPS 4682 DEB, 59149 is space debris in LEO originally from a launch on Sat, 03 Apr 1965 UTC launched from the Air Force Western Test Range (AFWTR). Debris objects in space refer to the collection of defunct objects orbiting the Earth. Examples of debris include non-operational satellites, rocket bodies, and fragments generated from explosions, collisions, or faulty payload assembly.

Loading next visibility...
Identifier
59149, 1965-027HR
Orbit
LEO
Country
Flag of USUS
Related business
Manufacturer
Unknown
Mission
Spacecraft
Bus & Motor
Unknown
Mass
Unknown
Launch date (UTC)
1965-04-03 (61 years ago)
Launch vehicle
Unknown
Launch site
Air Force Western Test Range (AFWTR)
Object type
Payload
Rocket body
Debris
Shape & HBR
Unknown shape, 1.1 m
Radar Cross Section
Medium (>0.1 m² and <1 m²)

Expand to show TLE details & history
Last TLE update: 12 hours ago

TLE from 12 hours ago
0 OPS 4682 DEB
1 59149U 65027HR  26263.30007098  .00000366  00000-0  11593-2 0  9990
2 59149  90.2590  19.4525 0037944 242.9722 116.7525 13.01729507518024
Epoch: 2026-09-20T07:12Z
TLE epoch observation values (Epoch: 2026-09-20T07:12:06.132Z)
Latitude
-0.00012°
Longitude
-87.76928°
Altitude
1,271.332 km
Speed
7.214 km/s
True Right ascension
01h 17m 48s
True Declination
0° 00' 00"
Sunlit
Object was in full shadow at epoch
Visualization orbit readout
Latitude
Unknown
Longitude
Unknown
Altitude
Unknown
Speed
Unknown
Apparent Right ascension
Unknown
Apparent Declination
Unknown
Sunlit
N/A
Visualization observer readout
Local Sidereal Time
12:10:06
Azimuth
Unknown
Elevation
Unknown
Doppler factor
Unknown
Orbital elements
Apogee altitude
1,281.396 km
Perigee altitude
1,223.489 km
Semi-major axis
7,630.579 km
Eccentricity
0.00379
Inclination
90.259°
RAAN
19.4525°
Arg. of periapsis
242.9722°
True anomaly
117.13993°
Mean anomaly
116.7525°
Eccentric anomaly
116.9463°
Mean motion
3.25617 °/min
Orbital period
110.56 mins
BSTAR
0.0011593
Loading maneuver chart data...
Computing Atmospheric mass density...
Loading historical data...
Loading historical data...
Loading historical data...
Loading historical data...
Loading historical data...
Loading historical data...
Loading historical data...

Documentation

Showing up to 5 results
|